User: anonymous   Login
Location: Nians�bougou
(13.2321°N, 4.9818°W)
Time: 07:28:31
(UTC+00:00)
Language:

Milstar 3 - Orbit

View from above orbital plane
View from above orbital plane
View from above satellite
View from above satellite

Ground track
Ground track

The orbit data is extracted from the following two-line orbital elements,

1 25724U 99023A   20154.92000881 0.00000000  00000-0  00000-0 0    06
2 25724  28.2370 218.5558 2127578 233.7634 126.2361  9.37450933    02
Epoch (UTC): 02 June 2020 22:04:48
Eccentricity: 0.2127578
inclination: 28.2370°
perigee height: 1101 km
apogee height: 5144 km
right ascension of ascending node: 218.5558°
argument of perigee: 233.7634°
revolutions per day: 9.37450933
mean anomaly at epoch: 126.2361°
orbit number at epoch: 0

The dashed part of the orbit path shows where the satellite is in the earth's shadow,  

DLR